Location: Haliburton Scout Reserve
(45.0900°N, 78.3200°W)
Time: 09:03:35
(UTC-04:00)

S-56A Canister/Altair - Pass Details

Date: 31 January 2023
Orbit: 638 x 2493 km, 38.9° (Epoch: 25 March)

Event Time Altitude Azimuth Distance (km) Brightness Sun altitude
Rises 16:18:26 0° 272° (W) 3,659 12.0 8.5°
Reaches altitude 10° 16:20:49 10° 265° (W) 2,905 11.7 8.2°
Maximum altitude 16:27:30 41° 197° (SSW) 1,914 10.3 7.2°
Drops below altitude 10° 16:37:14 10° 133° (SE) 4,228 11.2 5.7°
Sets 16:41:29 0° 127° (SE) 5,504 11.7 5.1°
